Wind_Speed
12 11 10 9 9 9 9 9 8 7 6 6 5 5 5 5 5 4 4 4 4 4 4 4 4 5 5 5 5 6 6 7 6 6 6 6 6 6 7 7 7 7 7
12 11 10 10 9 9 9 8 8 8 7 6 6 5 5 5 5 5 5 5 5 5 5 4 4 5 5 6 6 7 7 7 7 6 5 6 6 6 7 6 5 6 6
12 11 10 10 10 9 9 8 8 8 7 6 6 6 5 5 5 5 5 5 5 5 4 4 4 5 6 6 7 7 7 7 6 6 5 5 5 5 6 6 5 5 6
11 11 10 10 10 9 9 9 8 8 7 6 6 6 5 5 5 5 5 5 5 4 4 4 5 5 5 6 7 7 7 6 6 6 6 5 5 5 5 5 5 5 6
12 11 10 9 9 9 9 9 8 7 7 7 6 6 6 5 5 5 5 5 5 4 4 4 4 4 5 6 6 7 6 6 6 5 5 5 6 6 6 6 6 6 6
12 11 10 9 9 8 8 8 8 7 7 7 6 6 6 5 5 5 5 5 5 4 4 4 4 5 6 6 6 6 6 6 7 6 6 6 6 7 6 6 7 6 6
11 11 10 9 9 8 8 7 7 7 7 7 7 6 6 5 5 5 5 5 5 5 5 5 5 5 6 6 6 6 7 7 7 6 7 6 7 8 8 7 6 6 6
11 10 10 9 9 9 8 7 7 6 6 7 7 6 6 6 5 5 5 5 4 4 5 5 5 6 7 6 6 7 7 6 6 6 7 7 7 7 7 8 7 7 7
11 10 9 8 8 8 8 8 7 7 7 7 7 6 6 6 6 5 5 5 5 4 4 4 4 5 5 5 6 6 6 6 6 7 7 7 7 8 8 8 8 8 7
11 10 9 8 8 8 8 8 7 7 7 7 7 7 6 6 5 5 5 5 6 6 5 4 4 5 3 4 5 5 6 6 7 7 8 8 9 9 8 8 8 8 7
11 10 9 9 9 8 7 7 7 6 6 7 7 7 7 6 5 5 5 6 7 6 5 4 5 5 3 3 4 5 6 6 7 8 8 8 9 10 9 9 8 8 7
11 11 10 10 10 9 7 6 7 7 7 6 7 7 7 6 5 5 5 6 6 6 5 5 5 4 3 3 3 4 5 6 7 7 8 8 10 10 10 9 9 8 7
11 11 11 11 10 9 8 7 7 7 7 7 7 7 7 7 7 7 6 6 7 6 6 6 6 5 3 3 4 4 4 5 6 6 7 7 9 10 10 9 9 8 7
11 12 12 11 10 9 9 8 8 8 7 7 7 8 7 7 7 7 7 7 7 6 6 6 6 4 3 4 4 4 4 4 6 6 6 7 8 9 10 9 9 8 8
11 11 12 11 11 10 9 9 9 8 8 7 7 8 8 8 7 7 7 7 6 6 5 5 5 5 4 4 5 5 4 4 6 6 7 8 9 10 10 10 10 9 9
12 11 11 11 10 10 10 9 9 8 8 7 8 8 7 7 7 7 7 7 6 6 5 5 4 4 3 3 5 6 5 5 6 7 7 8 8 9 10 9 9 9 9
12 11 11 11 10 11 10 10 9 9 8 8 8 8 8 8 8 8 8 7 6 6 5 4 3 3 3 3 4 5 5 5 5 7 8 8 9 9 8 8 8 8 8
12 12 12 11 11 11 11 10 10 9 9 9 8 8 8 8 8 8 8 7 6 6 4 3 3 2 3 3 4 3 4 5 6 7 8 9 9 9 9 8 9 9 8
12 12 13 12 12 12 11 11 11 10 9 9 9 8 8 8 8 7 7 6 6 5 4 3 3 2 3 4 4 4 4 5 6 8 8 9 9 9 9 9 9 9 10
13 13 13 13 13 12 12 11 11 11 10 10 9 9 8 8 8 6 6 6 6 5 4 3 3 3 4 5 5 5 5 4 6 8 9 9 10 9 10 10 11 11 10
13 14 14 13 14 13 13 12 11 11 11 10 10 10 9 8 8 7 6 6 6 6 5 5 5 5 5 6 6 7 6 6 6 8 10 10 10 10 10 10 10 11 10
14 14 14 14 14 13 13 12 11 11 11 11 11 10 11 10 9 8 7 7 7 7 7 6 6 6 7 7 7 7 7 7 7 8 9 9 10 10 10 10 10 10 11
15 14 14 14 13 14 13 12 12 11 11 11 10 11 11 10 9 9 9 9 8 9 9 8 8 8 8 8 7 7 7 8 8 9 9 9 10 10 10 10 11 11 11
16 15 14 13 13 12 12 11 12 12 11 11 11 11 11 11 11 11 10 10 10 10 10 9 9 8 8 9 8 8 8 8 8 8 10 10 10 9 9 10 10 10 11
17 16 14 13 13 13 13 12 12 12 12 12 12 11 11 12 12 11 12 12 11 10 10 10 10 9 9 10 10 9 9 8 8 9 10 10 11 10 10 11 11 10 11
17 16 15 14 13 13 14 13 13 13 13 13 13 12 12 12 12 13 13 13 12 11 11 11 11 10 10 11 11 10 10 10 10 10 10 11 11 11 11 11 12 11 11
Wind_Direction
9 9 12 13 21 24 26 25 25 22 16 11 2 354 350 347 343 337 326 315 302 293 290 290 277 274 277 270 267 258 257 260 259 255 254 241 240 233 226 218 215 210 201
5 7 12 14 20 23 25 25 23 20 17 14 7 359 352 347 339 335 330 321 312 298 288 280 275 273 274 274 272 261 253 258 263 252 245 238 237 227 223 213 205 199 199
4 7 12 12 15 20 22 23 23 20 14 13 8 2 358 353 346 339 334 326 317 302 289 276 269 270 274 273 264 260 257 258 259 249 236 234 227 214 206 202 202 206 207
2 5 9 10 12 17 21 21 19 17 13 10 8 3 0 354 351 347 340 331 321 307 293 282 271 271 273 270 259 256 256 252 247 233 224 220 214 206 199 202 202 205 206
360 1 2 7 9 14 21 22 21 17 11 8 6 0 358 354 351 345 335 331 324 311 294 288 278 283 278 266 252 249 258 257 249 237 223 222 216 207 202 205 205 208 206
357 357 357 359 7 14 19 21 20 17 11 6 2 358 356 353 349 343 337 334 324 311 295 284 283 280 266 258 255 257 257 252 248 234 219 219 218 212 208 209 204 201 203
357 358 1 3 8 12 14 17 15 12 12 8 3 358 351 347 345 344 339 329 315 305 294 283 275 269 260 261 261 253 244 241 237 221 214 216 215 214 211 206 200 201 201
357 357 359 0 3 3 2 6 9 10 9 4 2 359 355 349 342 342 341 331 318 307 297 295 287 278 275 265 255 252 249 245 235 219 216 212 210 209 207 202 206 205 203
354 355 355 359 360 1 359 356 356 4 4 0 356 355 349 346 343 342 345 339 335 329 312 297 297 289 280 264 253 248 244 239 231 219 213 212 210 205 204 204 208 209 212
353 355 353 352 352 352 354 352 348 356 359 359 357 352 348 341 342 343 341 342 339 334 328 313 304 303 278 257 252 242 238 235 224 216 213 214 211 210 209 203 207 205 207
352 353 352 349 347 346 347 344 341 346 351 351 351 347 345 345 341 338 336 337 332 330 327 320 310 303 289 267 261 239 232 230 222 213 214 215 214 212 209 204 206 206 209
348 348 351 349 346 345 343 341 336 335 338 341 343 344 342 341 336 332 329 327 326 326 323 318 312 304 287 267 249 237 232 233 224 217 212 214 215 212 210 210 210 213 220
342 343 346 346 342 342 339 333 330 328 327 330 335 338 335 331 327 321 319 321 322 322 319 316 306 295 278 255 233 228 230 231 221 206 206 209 207 206 207 212 214 217 222
341 342 343 342 337 334 332 328 324 324 320 321 325 328 326 321 323 319 315 318 319 316 312 311 306 287 260 248 235 222 222 213 203 187 191 193 194 199 204 210 214 220 225
336 339 339 335 333 329 328 326 323 325 319 317 316 319 319 315 316 314 309 314 320 316 316 312 303 291 268 238 226 217 207 202 198 181 184 189 192 198 203 210 216 221 225
329 333 331 328 327 325 325 322 321 323 321 318 317 316 317 314 310 308 306 310 314 315 314 320 309 285 262 235 219 213 210 203 192 188 182 190 195 197 204 210 217 221 224
324 326 326 322 321 323 323 323 318 317 317 317 315 315 317 315 314 309 304 297 301 306 308 317 314 273 239 224 208 208 212 212 211 196 191 195 198 200 205 213 219 225 225
324 323 321 318 314 314 315 319 314 310 310 309 308 310 313 313 312 308 304 292 292 296 298 308 303 264 229 212 204 217 216 215 214 204 196 201 204 206 213 220 225 227 225
321 320 318 315 310 306 307 311 310 306 303 304 307 306 308 309 314 307 304 296 287 284 288 289 272 252 226 216 211 218 219 221 219 211 204 209 212 215 219 225 227 232 230
313 312 311 312 306 303 302 304 307 303 298 299 303 305 306 306 310 303 297 293 286 283 285 273 257 244 231 225 226 224 226 225 221 217 219 219 221 223 224 226 230 231 231
305 306 304 306 306 301 300 298 301 304 301 298 296 294 298 297 298 295 289 287 281 280 281 269 251 244 237 229 231 231 231 230 222 222 224 227 226 227 226 228 230 231 234
304 305 300 297 300 298 296 294 298 303 305 303 300 295 296 292 288 284 277 278 279 274 270 265 259 253 246 238 231 233 234 233 229 229 230 230 227 226 231 234 236 239 241
301 301 298 296 296 297 291 291 296 298 298 302 299 294 291 289 286 281 276 272 270 265 260 257 257 251 243 244 245 239 234 236 241 240 238 238 234 230 237 241 243 243 246
300 297 294 294 293 292 289 292 294 294 296 297 298 294 290 286 285 282 276 274 268 260 257 257 254 255 249 245 244 241 240 242 244 241 239 241 240 239 245 248 248 248 248
303 294 287 288 289 286 287 289 290 289 290 294 294 294 290 284 283 282 277 272 267 262 258 258 256 253 251 247 247 246 244 245 246 249 247 244 242 244 247 250 252 254 251
301 295 283 283 285 285 282 283 284 285 288 293 292 290 289 286 280 279 278 270 265 263 257 258 258 256 255 250 247 247 245 245 247 248 248 246 245 246 250 252 253 256 257
Height
5880 5879 5878 5876 5874 5873 5872 5871 5871 5871 5870 5870 5870 5870 5870 5870 5870 5870 5870 5870 5870 5870 5870 5870 5871 5871 5872 5872 5872 5872 5873 5873 5873 5874 5874 5874 5875 5875 5877 5878 5879 5881 5882
5881 5879 5878 5876 5875 5873 5872 5872 5871 5871 5870 5870 5870 5870 5870 5870 5870 5869 5869 5869 5869 5869 5869 5869 5870 5870 5870 5871 5871 5871 5871 5872 5872 5872 5873 5873 5873 5874 5876 5877 5879 5880 5882
5881 5879 5878 5877 5875 5874 5873 5872 5871 5871 5870 5870 5870 5870 5869 5869 5869 5869 5868 5868 5868 5868 5868 5868 5868 5869 5869 5869 5869 5870 5870 5870 5871 5871 5872 5873 5873 5873 5875 5877 5879 5880 5881
5881 5879 5878 5877 5875 5874 5873 5872 5871 5871 5870 5870 5870 5869 5869 5869 5869 5868 5868 5867 5867 5867 5867 5867 5867 5868 5868 5868 5868 5868 5869 5869 5870 5870 5871 5872 5873 5874 5875 5877 5878 5879 5880
5881 5879 5878 5876 5875 5874 5873 5872 5871 5870 5870 5870 5869 5869 5869 5868 5868 5868 5867 5867 5866 5866 5866 5866 5866 5866 5866 5866 5866 5867 5868 5868 5869 5870 5870 5871 5872 5873 5875 5876 5878 5879 5880
5881 5879 5878 5876 5875 5874 5873 5872 5871 5870 5870 5869 5869 5869 5868 5868 5867 5867 5866 5866 5865 5865 5864 5865 5865 5865 5865 5865 5866 5866 5866 5867 5868 5868 5869 5870 5871 5873 5874 5876 5877 5878 5879
5881 5879 5878 5876 5875 5874 5873 5872 5871 5870 5870 5869 5869 5868 5868 5867 5867 5866 5866 5865 5864 5864 5864 5864 5864 5864 5864 5864 5864 5864 5865 5865 5866 5867 5868 5870 5871 5872 5873 5875 5876 5878 5879
5880 5879 5878 5876 5875 5874 5873 5872 5871 5870 5870 5869 5868 5868 5867 5866 5866 5865 5865 5864 5864 5863 5863 5862 5862 5862 5862 5862 5862 5863 5863 5864 5865 5866 5867 5869 5870 5871 5872 5874 5876 5877 5878
5880 5879 5877 5876 5875 5874 5873 5872 5871 5870 5869 5869 5868 5867 5866 5866 5865 5865 5864 5863 5863 5862 5862 5861 5861 5860 5860 5860 5861 5861 5862 5862 5863 5865 5866 5867 5869 5870 5871 5873 5875 5876 5878
5879 5878 5877 5875 5874 5874 5873 5872 5871 5870 5869 5868 5867 5866 5866 5865 5864 5864 5863 5863 5862 5861 5861 5860 5860 5859 5858 5859 5859 5860 5860 5861 5862 5863 5865 5866 5868 5869 5870 5872 5874 5876 5877
5879 5877 5876 5875 5874 5873 5872 5871 5870 5869 5868 5867 5866 5865 5865 5864 5864 5863 5863 5862 5861 5860 5860 5859 5858 5857 5857 5857 5858 5858 5859 5859 5861 5862 5863 5865 5866 5868 5870 5872 5873 5875 5876
5878 5877 5876 5875 5873 5872 5871 5870 5869 5869 5868 5866 5865 5864 5864 5863 5863 5862 5861 5861 5860 5859 5858 5857 5857 5856 5856 5856 5857 5857 5858 5859 5859 5860 5861 5862 5864 5866 5868 5870 5872 5873 5875
5877 5876 5875 5874 5873 5871 5870 5869 5868 5867 5867 5865 5864 5863 5862 5862 5861 5861 5860 5860 5859 5858 5857 5856 5855 5855 5855 5855 5855 5856 5857 5857 5858 5859 5860 5860 5862 5864 5867 5869 5871 5872 5874
5877 5875 5874 5873 5872 5871 5869 5868 5867 5866 5865 5864 5863 5862 5861 5860 5860 5859 5859 5858 5857 5856 5855 5854 5854 5853 5853 5854 5854 5855 5856 5857 5857 5858 5859 5859 5861 5863 5866 5868 5870 5871 5873
5875 5874 5873 5872 5871 5870 5868 5867 5866 5865 5863 5862 5861 5860 5859 5859 5858 5858 5857 5856 5855 5854 5853 5852 5851 5851 5852 5852 5853 5854 5855 5856 5857 5858 5859 5860 5861 5863 5866 5867 5868 5870 5871
5874 5873 5872 5871 5869 5868 5867 5866 5864 5863 5862 5860 5860 5859 5858 5857 5856 5856 5855 5854 5854 5853 5852 5851 5849 5849 5850 5851 5852 5854 5855 5856 5857 5858 5859 5860 5861 5863 5865 5866 5867 5868 5870
5873 5872 5870 5869 5868 5866 5865 5864 5863 5861 5860 5859 5858 5857 5856 5855 5854 5854 5853 5852 5852 5851 5850 5849 5848 5848 5848 5850 5852 5853 5854 5855 5856 5857 5859 5860 5862 5863 5864 5865 5867 5868 5869
5871 5870 5868 5867 5866 5864 5863 5862 5861 5860 5859 5857 5856 5855 5854 5853 5853 5852 5851 5850 5850 5850 5849 5849 5848 5848 5849 5850 5852 5853 5854 5855 5855 5856 5858 5859 5861 5862 5863 5865 5866 5867 5868
5869 5868 5866 5865 5864 5862 5861 5860 5859 5858 5857 5856 5854 5853 5853 5852 5851 5850 5849 5848 5849 5849 5849 5849 5849 5849 5850 5850 5852 5853 5853 5854 5854 5855 5857 5858 5860 5861 5862 5863 5865 5866 5866
5867 5865 5864 5863 5861 5859 5858 5857 5856 5855 5854 5854 5852 5851 5850 5850 5849 5848 5848 5847 5847 5848 5848 5848 5848 5849 5850 5850 5851 5852 5853 5853 5854 5854 5856 5857 5859 5860 5861 5862 5863 5864 5865
5864 5863 5861 5860 5859 5857 5856 5855 5854 5853 5852 5851 5850 5849 5848 5848 5847 5846 5846 5846 5846 5846 5847 5847 5848 5848 5849 5849 5850 5851 5851 5852 5853 5854 5854 5856 5857 5858 5859 5860 5861 5862 5863
5861 5860 5858 5857 5856 5854 5853 5853 5851 5850 5849 5848 5847 5847 5846 5845 5845 5845 5845 5845 5845 5845 5845 5845 5846 5847 5847 5848 5849 5850 5850 5851 5851 5852 5853 5853 5855 5856 5857 5858 5859 5860 5861
5858 5856 5855 5854 5853 5851 5850 5849 5848 5847 5847 5846 5845 5844 5843 5843 5843 5843 5842 5842 5842 5843 5843 5843 5844 5845 5846 5847 5847 5848 5849 5849 5850 5850 5851 5852 5853 5854 5855 5856 5856 5857 5858
5854 5853 5852 5851 5850 5848 5847 5846 5846 5845 5844 5843 5842 5841 5841 5840 5840 5840 5840 5840 5840 5840 5840 5841 5842 5843 5844 5845 5845 5846 5847 5848 5848 5848 5849 5850 5851 5852 5853 5854 5854 5855 5855
5850 5848 5847 5847 5846 5845 5844 5843 5843 5842 5841 5840 5839 5839 5838 5837 5837 5837 5837 5837 5837 5837 5838 5838 5839 5840 5841 5842 5843 5844 5845 5846 5846 5847 5847 5848 5849 5850 5851 5851 5852 5852 5852
5846 5844 5843 5843 5842 5841 5840 5839 5839 5838 5838 5837 5836 5835 5835 5834 5834 5834 5834 5834 5834 5835 5835 5836 5836 5837 5838 5839 5840 5842 5843 5843 5844 5844 5845 5846 5846 5847 5848 5849 5849 5849 5849